DW5181 Beverly MA US current weather conditions

sailwx.info

Wind from 293 at 3 knots gusting 5

Air temperature 5.6° C
Dewpoint 0.7° C

Last reported at 2019-Dec-05 17:00 UTC.
Time now 2019-Dec-05 17:36 UTC

Location: N 42°35' W 070°52'.
View on Google Maps.

See reports from other nearby stations

  
Tides and Currents Weather Stations Pressure Air Temp Water Temp Dewpoint Dewpoint Depression Visibility Wind Speed Wind Dir Waves Ship Positions
date/time (UTC)wind fromknots sea level pressurealtimeterstation pressurevisibilityair tempwater tempwave heightnotes
2019-Dec-05 17:00 293 3 gusting 5 5.6
2019-Dec-05 16:55 341 1 gusting 8 5.0
2019-Dec-05 16:50 315 5 gusting 9 5.0
2019-Dec-05 16:45 311 3 gusting 9 5.0
2019-Dec-05 16:40 271 3 gusting 9 5.0
2019-Dec-05 16:35 226 4 gusting 6 5.0
2019-Dec-05 16:30 271 1 gusting 7 5.0
2019-Dec-05 16:25 280 4 gusting 7 4.4
2019-Dec-05 16:20 326 5 gusting 8 4.4
2019-Dec-05 16:15 286 4 gusting 8 4.4
2019-Dec-05 16:10 268 3 gusting 6 4.4
2019-Dec-05 16:05 276 2 gusting 8 4.4
2019-Dec-05 16:00 332 2 gusting 9 3.9
2019-Dec-05 15:55 302 3 gusting 9 3.9
2019-Dec-05 15:50 316 1 gusting 5 3.9
2019-Dec-05 15:45 204 2 gusting 6 3.3
2019-Dec-05 15:40 328 4 gusting 8 3.3
2019-Dec-05 15:35 302 3 gusting 8 3.3
2019-Dec-05 15:30 340 4 gusting 7 3.3
2019-Dec-05 15:25 272 3 gusting 7 3.3
2019-Dec-05 15:20 307 3 gusting 7 2.8
2019-Dec-05 15:15 263 3 gusting 9 2.8
2019-Dec-05 15:10 295 3 gusting 8 2.8
2019-Dec-05 15:05 334 2 gusting 6 2.8
2019-Dec-05 15:00 336 1 gusting 5 2.8
2019-Dec-05 14:55 305 2 gusting 7 2.8
2019-Dec-05 14:50 285 3 gusting 7 2.2
2019-Dec-05 14:45 222 0 gusting 7 2.2
2019-Dec-05 14:40 287 2 gusting 7 2.2
2019-Dec-05 14:35 006 1 gusting 6 2.2
2019-Dec-05 14:30 302 2 gusting 7 1.7
2019-Dec-05 14:25 296 3 gusting 7 1.7
2019-Dec-05 14:20 290 3 gusting 6 1.7
2019-Dec-05 14:15 239 1 gusting 6 1.7
2019-Dec-05 14:10 304 2 gusting 6 1.1
2019-Dec-05 14:05 291 0 gusting 4 1.1
2019-Dec-05 14:00 274 2 gusting 5 1.1
2019-Dec-05 13:55 297 1 gusting 6 1.1
2019-Dec-05 13:50 288 2 gusting 6 1.1
2019-Dec-05 13:45 269 2 gusting 6 0.6
2019-Dec-05 13:40 277 0 gusting 6 0.6
2019-Dec-05 13:35 295 2 gusting 6 0.6
2019-Dec-05 13:30 239 1 gusting 5 0.6
2019-Dec-05 13:25 281 1 gusting 3 -0.0
2019-Dec-05 13:20 291 0 gusting 3 -0.0
2019-Dec-05 13:15 288 1 gusting 4 -0.0
2019-Dec-05 13:10 295 0 gusting 4 -0.0
2019-Dec-05 13:05 231 0 gusting 4 -0.0
2019-Dec-05 13:00 300 0 gusting 3 -0.0
2019-Dec-05 12:55 269 0 gusting 3 -0.6
2019-Dec-05 12:50 312 1 gusting 4 -0.6
2019-Dec-05 12:45 274 1 gusting 4 -0.6
2019-Dec-05 12:40 293 1 gusting 4 -0.6
2019-Dec-05 12:35 308 1 gusting 4 -1.1
2019-Dec-05 12:30 277 0 gusting 3 -1.1
2019-Dec-05 12:25 231 1 gusting 2 -1.1
2019-Dec-05 12:20 267 1 gusting 2 -1.1
2019-Dec-05 12:15 263 -1.1
2019-Dec-05 12:10 270 -1.1
2019-Dec-05 12:05 253 0 gusting 2 -1.1
2019-Dec-05 12:00 255 -1.1
2019-Dec-05 11:55 286 0 gusting 3 -1.1
2019-Dec-05 11:50 277 0 gusting 4 -1.1
2019-Dec-05 11:45 238 0 gusting 4 -1.1
2019-Dec-05 11:40 239 0 gusting 3 -1.1
2019-Dec-05 11:35 285 -1.1
2019-Dec-05 11:30 276 0 gusting 2 -1.1
2019-Dec-05 11:25 277 0 gusting 2 -1.1
2019-Dec-05 11:20 263 0 gusting 1 -1.1
2019-Dec-05 11:15 300 -1.1
2019-Dec-05 11:10 259 0 gusting 2 -0.6
2019-Dec-05 11:05 259 1 gusting 3 -0.6
2019-Dec-05 11:00 248 1 gusting 3 -0.6
2019-Dec-05 10:55 278 0 gusting 3 -0.6
2019-Dec-05 10:50 274 0 gusting 3 -0.6
2019-Dec-05 10:45 231 0 gusting 3 -0.6
2019-Dec-05 10:40 285 0 gusting 3 -0.6
2019-Dec-05 10:35 276 -0.6
2019-Dec-05 10:30 261 0 gusting 1 -0.6
2019-Dec-05 10:25 261 0 gusting 1 -0.6
2019-Dec-05 10:20 255 0 gusting 1 -0.6
2019-Dec-05 10:15 269 -0.6
2019-Dec-05 10:10 256 0 gusting 4 -0.6
2019-Dec-05 10:05 321 1 gusting 4 -0.6
2019-Dec-05 10:00 272 0 gusting 4 -0.6
2019-Dec-05 09:55 291 1 gusting 5 -0.6
2019-Dec-05 09:50 308 1 gusting 5 -0.6
2019-Dec-05 09:45 327 1 gusting 5 -0.6
2019-Dec-05 09:40 244 2 gusting 4 -0.6
2019-Dec-05 09:35 277 -0.6
2019-Dec-05 09:30 277 -0.6
2019-Dec-05 09:25 276 -0.6
2019-Dec-05 09:20 277 1 gusting 3 -0.6
2019-Dec-05 09:15 273 0 gusting 1 -0.6
2019-Dec-05 09:10 271 -0.6
2019-Dec-05 09:05 271 -0.6
2019-Dec-05 09:00 271 -0.6
2019-Dec-05 08:55 256 -0.6
2019-Dec-05 08:50 276 0 gusting 1 -0.6
2019-Dec-05 08:45 256 0 gusting 1 -0.6
2019-Dec-05 08:40 257 0 gusting 1 -0.6
2019-Dec-05 08:35 244 0 gusting 1 -0.6
2019-Dec-05 08:30 239 0 gusting 2 -0.6
2019-Dec-05 08:25 239 0 gusting 2 -0.6
2019-Dec-05 08:20 240 1 gusting 2 -0.6
2019-Dec-05 08:15 242 1 gusting 2 -0.6
2019-Dec-05 08:10 276 -0.6
2019-Dec-05 08:05 246 -0.6
2019-Dec-05 08:00 233 0 gusting 1 -0.6
2019-Dec-05 07:55 276 0 gusting 2 -0.6
2019-Dec-05 07:50 280 0 gusting 2 -0.0
2019-Dec-05 07:45 243 0 gusting 3 -0.0
2019-Dec-05 07:40 244 1 gusting 3 -0.0
2019-Dec-05 07:35 290 0 gusting 2 -0.0
2019-Dec-05 07:30 296 -0.0
2019-Dec-05 07:25 288 0 gusting 3 -0.0
2019-Dec-05 07:20 270 1 gusting 3 -0.0
2019-Dec-05 07:15 270 1 gusting 4 -0.0
2019-Dec-05 07:10 281 1 gusting 4 -0.0
2019-Dec-05 07:05 250 0 gusting 2 -0.0
2019-Dec-05 07:00 214 -0.0
2019-Dec-05 06:55 283 0 gusting 3 -0.0
2019-Dec-05 06:50 287 0 gusting 4 0.6
2019-Dec-05 06:45 280 1 gusting 5 0.6
2019-Dec-05 06:40 252 1 gusting 5 0.6
2019-Dec-05 06:35 239 1 gusting 3 0.6
2019-Dec-05 06:30 264 0 gusting 3 0.6
2019-Dec-05 06:25 276 0 gusting 2 0.6
2019-Dec-05 06:20 296 0 gusting 2 0.6
2019-Dec-05 06:15 287 1 gusting 2 0.6
2019-Dec-05 06:10 280 0 gusting 2 0.6
2019-Dec-05 06:05 261 0 gusting 4 0.6
2019-Dec-05 06:00 276 2 gusting 4 0.6
2019-Dec-05 05:55 249 0 gusting 3 0.6
2019-Dec-05 05:50 261 0 gusting 2 0.6
2019-Dec-05 05:45 266 0 gusting 2 0.6
2019-Dec-05 05:40 269 0 gusting 4 0.6
2019-Dec-05 05:35 273 1 gusting 4 0.6
2019-Dec-05 05:30 278 0 gusting 3 0.6
2019-Dec-05 05:25 278 0 gusting 3 0.6
2019-Dec-05 05:20 270 0 gusting 2 0.6
2019-Dec-05 05:15 246 0 gusting 3 0.6
2019-Dec-05 05:10 270 0 gusting 3 0.6
2019-Dec-05 05:05 288 0 gusting 3 0.6
2019-Dec-05 05:00 291 0 gusting 2 0.6
2019-Dec-05 04:55 278 0.6
2019-Dec-05 04:50 259 0 gusting 2 0.6
2019-Dec-05 04:45 252 0.6
2019-Dec-05 04:40 252 0 gusting 0 0.6
2019-Dec-05 04:35 215 0 gusting 2 0.6
2019-Dec-05 04:30 253 0 gusting 2 0.6
2019-Dec-05 04:25 278 0 gusting 2 0.6
2019-Dec-05 04:20 236 0 gusting 2 1.1
2019-Dec-05 04:15 267 1 gusting 2 1.1
2019-Dec-05 04:10 236 0 gusting 1 1.1
2019-Dec-05 04:05 256 0 gusting 1 1.1
2019-Dec-05 04:00 273 1.1
2019-Dec-05 03:55 276 0 gusting 1 1.1
2019-Dec-05 03:50 263 1.1
2019-Dec-05 03:45 288 1 gusting 2 1.1
2019-Dec-05 03:40 248 0 gusting 3 1.1
2019-Dec-05 03:35 266 1 gusting 3 1.1
2019-Dec-05 03:30 253 0 gusting 4 1.1
2019-Dec-05 03:25 264 1 gusting 4 1.1
2019-Dec-05 03:20 309 1 gusting 3 1.1
2019-Dec-05 03:15 280 0 gusting 3 1.1
2019-Dec-05 03:10 287 1 gusting 3 1.1
2019-Dec-05 03:05 276 0 gusting 4 1.1
2019-Dec-05 03:00 273 1.1
2019-Dec-05 02:55 274 0 gusting 4 1.1
2019-Dec-05 02:50 291 0 gusting 4 1.1
2019-Dec-05 02:45 249 1 gusting 4 1.1
2019-Dec-05 02:40 284 1 gusting 4 1.1
2019-Dec-05 02:35 276 1 gusting 2 1.1
2019-Dec-05 02:30 291 1.1
2019-Dec-05 02:25 273 1 gusting 5 1.1
2019-Dec-05 02:20 271 2 gusting 5 1.1
2019-Dec-05 02:15 269 1 gusting 3 1.1
2019-Dec-05 02:10 266 0 gusting 3 1.1
2019-Dec-05 02:05 280 0 gusting 3 1.1
2019-Dec-05 02:00 278 0 gusting 3 1.1
2019-Dec-05 01:55 272 1.1
2019-Dec-05 01:50 272 0 gusting 3 1.1
2019-Dec-05 01:45 273 1 gusting 3 1.1
2019-Dec-05 01:40 276 0 gusting 2 1.1
2019-Dec-05 01:35 284 0 gusting 4 1.7
2019-Dec-05 01:30 256 1 gusting 6 1.7
2019-Dec-05 01:25 278 2 gusting 6 1.1
2019-Dec-05 01:20 283 0 gusting 3 1.1
2019-Dec-05 01:15 288 1 gusting 3 1.1
2019-Dec-05 01:10 296 1 gusting 2 1.1
2019-Dec-05 01:05 267 0 gusting 1 1.1
2019-Dec-05 01:00 285 0 gusting 2 1.1
2019-Dec-05 00:55 264 0 gusting 2 1.1
2019-Dec-05 00:50 276 0 gusting 1 1.1
2019-Dec-05 00:45 261 0 gusting 1 1.1
2019-Dec-05 00:40 248 1.1
2019-Dec-05 00:35 248 1.1
2019-Dec-05 00:30 248 1.1
2019-Dec-05 00:25 248 1.1
2019-Dec-05 00:20 248 1.1
2019-Dec-05 00:15 250 0 gusting 1 1.1
2019-Dec-05 00:10 224 0 gusting 2 1.1
2019-Dec-05 00:05 253 0 gusting 2 1.1
2019-Dec-05 00:00 257 0 gusting 3 1.7
2019-Dec-04 23:55 249 1.7
2019-Dec-04 23:50 224 1 gusting 2 1.1
2019-Dec-04 23:45 240 0 gusting 2 1.1
2019-Dec-04 23:40 225 0 gusting 3 1.1
2019-Dec-04 23:35 249 0 gusting 3 1.1
2019-Dec-04 23:30 217 0 gusting 1 1.1
2019-Dec-04 23:25 236 0 gusting 2 1.1
2019-Dec-04 23:20 210 0 gusting 2 1.1
2019-Dec-04 23:15 245 0 gusting 3 1.1
2019-Dec-04 23:10 229 1 gusting 3 1.7
2019-Dec-04 23:05 235 0 gusting 2 1.1
2019-Dec-04 23:00 232 0 gusting 2 1.1
2019-Dec-04 22:55 240 1 gusting 1 1.1
2019-Dec-04 22:50 233 1.1
2019-Dec-04 22:45 238 1.1
2019-Dec-04 22:40 232 0 gusting 2 1.1
2019-Dec-04 22:35 245 1.1
2019-Dec-04 22:30 253 0 gusting 2 1.1
2019-Dec-04 22:25 232 0 gusting 2 1.1
2019-Dec-04 22:20 229 0 gusting 2 1.1
2019-Dec-04 22:15 238 1 gusting 2 1.1
2019-Dec-04 22:10 232 0 gusting 1 1.1
2019-Dec-04 22:05 224 1.1
2019-Dec-04 22:00 224 1.1
2019-Dec-04 21:55 224 1.1
2019-Dec-04 21:50 224 0.6
2019-Dec-04 21:45 224 1.1
2019-Dec-04 21:40 224 1.1
2019-Dec-04 21:35 224 1.1
2019-Dec-04 21:30 224 1.1
2019-Dec-04 21:25 224 1.1
2019-Dec-04 21:20 224 0 gusting 0 1.1
2019-Dec-04 21:15 218 1.1
2019-Dec-04 21:10 218 1.1
2019-Dec-04 21:05 218 1.7
2019-Dec-04 21:00 215 0 gusting 1 1.7
2019-Dec-04 20:55 170 1.7
2019-Dec-04 20:50 246 1.7
2019-Dec-04 20:45 246 0 gusting 3 1.7
2019-Dec-04 20:40 235 1 gusting 2 1.7
2019-Dec-04 20:35 232 0 gusting 2 1.7
2019-Dec-04 20:30 235 0 gusting 2 1.7
2019-Dec-04 20:25 217 1.7
2019-Dec-04 20:20 217 1.7
2019-Dec-04 20:15 204 0 gusting 3 2.2
2019-Dec-04 20:10 214 0 gusting 1 2.2
2019-Dec-04 20:05 248 0 gusting 1 2.2
2019-Dec-04 20:00 264 0 gusting 2 2.2
2019-Dec-04 19:55 276 0 gusting 2 2.2
2019-Dec-04 19:50 248 0 gusting 3 2.2
2019-Dec-04 19:45 219 1 gusting 5 2.2
2019-Dec-04 19:40 243 1 gusting 5 2.2
2019-Dec-04 19:35 252 1 gusting 4 2.2
2019-Dec-04 19:30 236 1 gusting 5 2.2
2019-Dec-04 19:25 264 2 gusting 5 2.2
2019-Dec-04 19:20 225 2 gusting 4 2.2
2019-Dec-04 19:15 232 0 gusting 4 2.2
2019-Dec-04 19:10 276 1 gusting 4 2.2
2019-Dec-04 19:05 252 1 gusting 4 2.2
2019-Dec-04 19:00 205 2 gusting 4 2.2
2019-Dec-04 18:55 263 2 gusting 5 2.2
2019-Dec-04 18:50 205 2 gusting 5 2.2
2019-Dec-04 18:45 210 2 gusting 4 2.2
2019-Dec-04 18:40 260 2 gusting 4 2.2
2019-Dec-04 18:35 226 1 gusting 4 2.2
2019-Dec-04 18:30 288 0 gusting 3 2.2
2019-Dec-04 18:25 276 1 gusting 3 2.2
2019-Dec-04 18:20 248 1 gusting 3 2.2
2019-Dec-04 18:15 256 2 gusting 6 2.2
2019-Dec-04 18:10 236 1 gusting 5 1.7
2019-Dec-04 18:05 328 2 gusting 5 1.7
2019-Dec-04 18:00 281 1 gusting 2 1.7
2019-Dec-04 17:55 289 1 gusting 3 1.7
2019-Dec-04 17:50 259 0 gusting 3 1.7
2019-Dec-04 17:45 274 0 gusting 2 1.7
2019-Dec-04 17:40 239 0 gusting 4 1.7
2019-Dec-04 17:35 281 1 gusting 4 1.7
2019-Dec-04 17:30 281 2 gusting 4 1.7
2019-Dec-04 17:25 282 2 gusting 4 1.7
2019-Dec-04 17:20 256 0 gusting 5 1.7
2019-Dec-04 17:15 270 2 gusting 5 1.7
2019-Dec-04 17:10 281 0 gusting 4 1.7
2019-Dec-04 17:05 250 1 gusting 6 1.1
2019-Dec-04 17:00 274 2 gusting 6 1.1
2019-Dec-04 16:55 232 2 gusting 5 1.1
2019-Dec-04 16:50 208 2 gusting 4 1.1
2019-Dec-04 16:45 240 1 gusting 4 1.1
2019-Dec-04 16:40 250 2 gusting 5 1.1
2019-Dec-04 16:35 238 1 gusting 5 0.6
2019-Dec-04 16:30 273 1 gusting 4 0.6
2019-Dec-04 16:25 256 1 gusting 4 0.6
2019-Dec-04 16:20 249 0 gusting 3 0.6
2019-Dec-04 16:15 262 1 gusting 2 0.6
2019-Dec-04 16:10 266 1 gusting 3 0.6
2019-Dec-04 16:05 269 1 gusting 5 0.6
2019-Dec-04 16:00 284 2 gusting 5 0.6
2019-Dec-04 15:55 257 2 gusting 6 0.6
2019-Dec-04 15:50 221 3 gusting 6 0.6
2019-Dec-04 15:45 266 1 gusting 5 0.6
2019-Dec-04 15:40 252 1 gusting 5 0.6
2019-Dec-04 15:35 264 1 gusting 4 -0.0
2019-Dec-04 15:30 255 2 gusting 4 -0.0
2019-Dec-04 15:25 260 1 gusting 4 -0.0
2019-Dec-04 15:20 237 2 gusting 5 -0.0
2019-Dec-04 15:15 229 1 gusting 4 -0.0
2019-Dec-04 15:10 250 1 gusting 2 -0.0
2019-Dec-04 15:05 264 0 gusting 3 -0.0
2019-Dec-04 15:00 222 1 gusting 3 -0.0
2019-Dec-04 14:55 236 0 gusting 3 -0.0
2019-Dec-04 14:50 242 2 gusting 3 -0.6
2019-Dec-04 14:45 256 1 gusting 2 -0.6
2019-Dec-04 14:40 246 1 gusting 2 -0.6
2019-Dec-04 14:35 257 1 gusting 2 -0.6
2019-Dec-04 14:30 262 0 gusting 2 -0.6
2019-Dec-04 14:25 245 0 gusting 2 -0.6
2019-Dec-04 14:20 249 -1.1
2019-Dec-04 14:15 267 0 gusting 3 -1.1
2019-Dec-04 14:10 267 0 gusting 3 -1.1
2019-Dec-04 14:05 262 0 gusting 3 -1.1
2019-Dec-04 14:00 255 -1.7
2019-Dec-04 13:55 266 -1.7
2019-Dec-04 13:50 244 1 gusting 3 -1.7
2019-Dec-04 13:45 249 1 gusting 2 -1.7
2019-Dec-04 13:40 262 0 gusting 1 -2.2
2019-Dec-04 13:35 246 -2.2
2019-Dec-04 13:30 239 0 gusting 1 -2.2
2019-Dec-04 13:25 218 -2.8
2019-Dec-04 13:20 235 0 gusting 0 -2.8
2019-Dec-04 13:15 236 -2.8
2019-Dec-04 13:10 235 -3.3
2019-Dec-04 13:05 235 0 gusting 1 -3.3
2019-Dec-04 13:00 240 -3.3
2019-Dec-04 12:55 256 0 gusting 1 -3.3
2019-Dec-04 12:50 236 0 gusting 3 -3.3
2019-Dec-04 12:45 242 0 gusting 3 -3.3
2019-Dec-04 12:40 188 1 gusting 3 -3.3
2019-Dec-04 12:35 240 2 gusting 3 -3.3
2019-Dec-04 12:30 235 2 gusting 3 -3.9
2019-Dec-04 12:25 255 0 gusting 2 -3.9
2019-Dec-04 12:20 242 0 gusting 1 -4.4
2019-Dec-04 12:15 236 -4.4
2019-Dec-04 12:10 242 0 gusting 1 -4.4
2019-Dec-04 12:05 205 -4.4
2019-Dec-04 12:00 205 0 gusting 2 -4.4
2019-Dec-04 11:55 222 0 gusting 1 -4.4
2019-Dec-04 11:50 221 0 gusting 2 -4.4
2019-Dec-04 11:45 248 0 gusting 0 -4.4
2019-Dec-04 11:40 248 0 gusting 1 -4.4
2019-Dec-04 11:35 248 -4.4
2019-Dec-04 11:30 248 -4.4
2019-Dec-04 11:25 248 -4.4
2019-Dec-04 11:20 248 -3.9
2019-Dec-04 11:15 248 -3.9
2019-Dec-04 11:10 248 0 gusting 1 -3.9
2019-Dec-04 11:05 240 0 gusting 1 -3.9
2019-Dec-04 11:00 240 0 gusting 2 -3.9
2019-Dec-04 10:55 233 1 gusting 2 -3.3
2019-Dec-04 10:50 232 0 gusting 1 -3.3
2019-Dec-04 10:45 262 0 gusting 1 -3.3
2019-Dec-04 10:40 273 0 gusting 2 -3.3
2019-Dec-04 10:35 256 0 gusting 2 -3.3
2019-Dec-04 10:30 245 0 gusting 3 -3.3
2019-Dec-04 10:25 242 1 gusting 3 -3.3
2019-Dec-04 10:20 267 0 gusting 2 -3.3
2019-Dec-04 10:15 314 0 gusting 3 -3.3
2019-Dec-04 10:10 314 1 gusting 3 -3.3
2019-Dec-04 10:05 294 0 gusting 2 -3.3
2019-Dec-04 10:00 215 0 gusting 2 -3.3
2019-Dec-04 09:55 280 0 gusting 2 -3.9
2019-Dec-04 09:50 256 1 gusting 3 -3.9
2019-Dec-04 09:45 272 0 gusting 5 -3.9
2019-Dec-04 09:40 293 2 gusting 5 -3.9
2019-Dec-04 09:35 281 2 gusting 4 -3.9
2019-Dec-04 09:30 268 1 gusting 4 -3.9
2019-Dec-04 09:25 257 1 gusting 2 -3.9
2019-Dec-04 09:20 233 0 gusting 2 -3.9
2019-Dec-04 09:15 290 1 gusting 2 -3.9
2019-Dec-04 09:10 268 0 gusting 2 -3.9
2019-Dec-04 09:05 280 0 gusting 2 -3.9
2019-Dec-04 09:00 319 0 gusting 2 -3.9
2019-Dec-04 08:55 256 0 gusting 2 -3.9
2019-Dec-04 08:50 264 0 gusting 1 -3.9
2019-Dec-04 08:45 272 -3.9
2019-Dec-04 08:40 273 0 gusting 2 -3.9
2019-Dec-04 08:35 281 0 gusting 2 -3.3
2019-Dec-04 08:30 262 1 gusting 3 -3.3
2019-Dec-04 08:25 274 0 gusting 3 -3.3
2019-Dec-04 08:20 280 0 gusting 2 -3.3
2019-Dec-04 08:15 215 0 gusting 3 -3.3
2019-Dec-04 08:10 289 0 gusting 4 -3.3
2019-Dec-04 08:05 264 1 gusting 5 -3.3
2019-Dec-04 08:00 276 3 gusting 5 -3.3
2019-Dec-04 07:55 295 2 gusting 5 -3.3
2019-Dec-04 07:50 276 2 gusting 5 -3.3
2019-Dec-04 07:45 295 1 gusting 5 -3.3
2019-Dec-04 07:40 333 0 gusting 5 -3.3
2019-Dec-04 07:35 315 1 gusting 3 -3.3
2019-Dec-04 07:30 309 1 gusting 3 -3.3
2019-Dec-04 07:25 332 1 gusting 4 -3.3
2019-Dec-04 07:20 308 1 gusting 3 -3.3
2019-Dec-04 07:15 271 0 gusting 4 -3.3
2019-Dec-04 07:10 281 1 gusting 4 -3.3
2019-Dec-04 07:05 256 1 gusting 2 -3.3
2019-Dec-04 07:00 326 0 gusting 3 -3.3
2019-Dec-04 06:55 283 0 gusting 4 -3.3
2019-Dec-04 06:50 291 1 gusting 4 -3.3
2019-Dec-04 06:45 252 0 gusting 2 -3.3
2019-Dec-04 06:40 281 1 gusting 3 -3.3
2019-Dec-04 06:35 273 0 gusting 3 -3.3
2019-Dec-04 06:30 239 1 gusting 3 -3.3
2019-Dec-04 06:25 287 1 gusting 3 -2.8
2019-Dec-04 06:20 277 1 gusting 3 -2.8
2019-Dec-04 06:15 253 1 gusting 3 -2.8
2019-Dec-04 06:10 283 0 gusting 2 -2.8
2019-Dec-04 06:05 319 0 gusting 4 -2.8
2019-Dec-04 06:00 257 0 gusting 4 -2.8
2019-Dec-04 05:55 259 1 gusting 5 -2.8
2019-Dec-04 05:50 336 2 gusting 5 -2.8
2019-Dec-04 05:45 314 1 gusting 5 -2.8
2019-Dec-04 05:40 283 1 gusting 5 -2.8
2019-Dec-04 05:35 291 2 gusting 4 -2.8
2019-Dec-04 05:30 309 1 gusting 6 -2.8
2019-Dec-04 05:25 270 2 gusting 6 -2.8
2019-Dec-04 05:20 360 1 gusting 6 -2.8
2019-Dec-04 05:15 266 1 gusting 5 -2.8
2019-Dec-04 05:10 273 0 gusting 4 -2.8
2019-Dec-04 05:05 332 2 gusting 6 -2.8
2019-Dec-04 05:00 284 1 gusting 4 -2.8
2019-Dec-04 04:55 279 1 gusting 4 -2.8
2019-Dec-04 04:50 291 0 gusting 5 -2.8
2019-Dec-04 04:45 319 3 gusting 5 -2.8
2019-Dec-04 04:40 318 2 gusting 4 -2.8
2019-Dec-04 04:35 287 1 gusting 4 -2.8
2019-Dec-04 04:30 341 2 gusting 7 -2.8
2019-Dec-04 04:25 323 1 gusting 4 -2.8
2019-Dec-04 04:20 295 1 gusting 4 -2.2
2019-Dec-04 04:15 273 2 gusting 4 -2.2
2019-Dec-04 04:10 228 1 gusting 4 -2.2
2019-Dec-04 04:05 305 2 gusting 5 -2.2
2019-Dec-04 04:00 255 1 gusting 5 -2.2
2019-Dec-04 03:55 323 2 gusting 6 -2.2
2019-Dec-04 03:50 316 3 gusting 6 -2.2
2019-Dec-04 03:45 318 2 gusting 6 -2.2
2019-Dec-04 03:40 313 2 gusting 7 -2.8
2019-Dec-04 03:35 298 2 gusting 7 -2.2
2019-Dec-04 03:30 315 2 gusting 6 -2.2
2019-Dec-04 03:25 318 2 gusting 8 -2.2
2019-Dec-04 03:20 284 2 gusting 8 -2.2
2019-Dec-04 03:15 308 1 gusting 8 -2.2
2019-Dec-04 03:10 274 2 gusting 8 -2.8
2019-Dec-04 03:05 322 1 gusting 6 -2.8
2019-Dec-04 03:00 315 2 gusting 6 -2.8
2019-Dec-04 02:55 322 3 gusting 6 -2.8
2019-Dec-04 02:50 244 2 gusting 6 -2.8
2019-Dec-04 02:45 315 3 gusting 6 -2.8
2019-Dec-04 02:40 360 2 gusting 6 -2.8
2019-Dec-04 02:35 308 3 gusting 6 -2.8
2019-Dec-04 02:30 304 4 gusting 6 -2.8
2019-Dec-04 02:25 311 3 gusting 6 -2.8
2019-Dec-04 02:20 280 2 gusting 6 -2.8
2019-Dec-04 02:15 308 3 gusting 6 -2.8
2019-Dec-04 02:10 285 4 gusting 6 -2.8
2019-Dec-04 02:05 334 2 gusting 6 -2.8
2019-Dec-04 02:00 064 2 gusting 6 -2.8
2019-Dec-04 01:55 349 1 gusting 8 -2.8
2019-Dec-04 01:50 298 4 gusting 8 -2.8
2019-Dec-04 01:45 321 3 gusting 6 -2.8
2019-Dec-04 01:35 293 1 gusting 6 -2.8
2019-Dec-04 01:30 290 1 gusting 6 -2.8
2019-Dec-04 01:25 308 0 gusting 6 -2.8
2019-Dec-04 01:20 300 2 gusting 6 -2.8
2019-Dec-04 01:15 323 1 gusting 4 -2.8
2019-Dec-04 01:10 316 2 gusting 4 -2.2
2019-Dec-04 01:05 335 2 gusting 4 -2.2
2019-Dec-04 01:00 321 2 gusting 4 -2.2
2019-Dec-04 00:55 330 2 gusting 5 -2.2
2019-Dec-04 00:50 330 3 gusting 6 -2.2
2019-Dec-04 00:45 340 3 gusting 6 -2.2
2019-Dec-04 00:40 345 2 gusting 5 -2.2
2019-Dec-04 00:35 309 2 gusting 5 -2.2
2019-Dec-04 00:30 345 3 gusting 5 -2.2
2019-Dec-04 00:25 329 1 gusting 4 -2.2
2019-Dec-04 00:20 337 1 gusting 4 -2.2
2019-Dec-04 00:15 287 1 gusting 5 -2.2
2019-Dec-04 00:10 345 2 gusting 6 -2.2
2019-Dec-04 00:05 310 2 gusting 5 -2.2
2019-Dec-04 00:00 339 3 gusting 7 -1.7
2019-Dec-03 23:55 004 4 gusting 7 -1.7
2019-Dec-03 23:50 334 4 gusting 7 -1.7
2019-Dec-03 23:45 330 2 gusting 6 -1.7
2019-Dec-03 23:40 316 3 gusting 7 -1.7
2019-Dec-03 23:35 349 4 gusting 8 -1.7
2019-Dec-03 23:30 305 5 gusting 13 -1.7
2019-Dec-03 23:25 284 4 gusting 13 -1.7
2019-Dec-03 23:20 340 3 gusting 11 -1.7
2019-Dec-03 23:15 342 6 gusting 11 -1.7
2019-Dec-03 23:10 322 4 gusting 6 -1.7
2019-Dec-03 23:05 328 3 gusting 6 -1.7
2019-Dec-03 23:00 327 3 gusting 7 -1.7
2019-Dec-03 22:55 338 3 gusting 7 -1.7
2019-Dec-03 22:50 312 5 gusting 7 -1.7
2019-Dec-03 22:45 349 3 gusting 6 -1.7
2019-Dec-03 22:40 325 4 gusting 6 -1.7
2019-Dec-03 22:35 353 4 gusting 7 -1.7
2019-Dec-03 22:30 334 4 gusting 8 -1.7
2019-Dec-03 22:25 338 5 gusting 7 -1.7
2019-Dec-03 22:20 343 2 gusting 6 -1.7
2019-Dec-03 22:15 321 3 gusting 7 -1.7
2019-Dec-03 22:10 343 5 gusting 10 -1.7
2019-Dec-03 22:05 330 5 gusting 10 -1.7
2019-Dec-03 22:00 300 4 gusting 8 -1.7
2019-Dec-03 21:55 021 5 gusting 11 -1.7
2019-Dec-03 21:50 005 6 gusting 8 -1.7
2019-Dec-03 21:45 314 3 gusting 7 -1.7
2019-Dec-03 21:40 321 5 gusting 9 -1.7
2019-Dec-03 21:35 330 5 gusting 9 -1.7
2019-Dec-03 21:30 326 6 gusting 9 -1.7
2019-Dec-03 21:25 337 5 gusting 10 -1.7
2019-Dec-03 21:20 321 6 gusting 11 -1.7
2019-Dec-03 21:15 015 6 gusting 13 -1.7
2019-Dec-03 21:10 009 7 gusting 13 -1.7
2019-Dec-03 21:05 326 6 gusting 13 -1.7
2019-Dec-03 21:00 304 6 gusting 14 -1.7
2019-Dec-03 20:55 332 6 gusting 13 -1.7
2019-Dec-03 20:50 336 5 gusting 7 -1.7
2019-Dec-03 20:45 001 4 gusting 9 -1.7
2019-Dec-03 20:40 359 6 gusting 9 -1.7
2019-Dec-03 20:35 328 5 gusting 8 -1.7
2019-Dec-03 20:30 340 6 gusting 11 -1.7
2019-Dec-03 20:25 004 5 gusting 13 -1.7
2019-Dec-03 20:20 009 6 gusting 9 -1.7
2019-Dec-03 20:15 019 6 gusting 9 -1.7
2019-Dec-03 20:10 314 4 gusting 9 -1.7
2019-Dec-03 20:05 319 5 gusting 10 -1.7
2019-Dec-03 20:00 326 5 gusting 10 -1.1
2019-Dec-03 19:55 321 6 gusting 9 -1.1
2019-Dec-03 19:50 302 6 gusting 10 -1.1
2019-Dec-03 19:45 316 6 gusting 11 -1.1
2019-Dec-03 19:40 304 5 gusting 11 -1.1
2019-Dec-03 19:35 001 5 gusting 9 -1.1
2019-Dec-03 19:30 313 6 gusting 10 -1.1
2019-Dec-03 19:25 302 6 gusting 11 -1.1
2019-Dec-03 19:20 318 6 gusting 11 -1.1
2019-Dec-03 19:15 025 4 gusting 11 -1.1
2019-Dec-03 19:10 326 4 gusting 7 -1.1
2019-Dec-03 19:05 341 2 gusting 9 -1.1
2019-Dec-03 19:00 345 4 gusting 11 -1.1
2019-Dec-03 18:55 290 5 gusting 11 -0.6
2019-Dec-03 18:50 316 3 gusting 11 -0.6
2019-Dec-03 18:45 287 4 gusting 11 -0.6
2019-Dec-03 18:40 273 4 gusting 11 -0.6
2019-Dec-03 18:35 351 6 gusting 10 -0.6
2019-Dec-03 18:30 336 4 gusting 8 -0.6
2019-Dec-03 18:25 317 5 gusting 11 -0.6
2019-Dec-03 18:20 317 5 gusting 12 -0.6
2019-Dec-03 18:15 317 6 gusting 12 -0.6
2019-Dec-03 18:10 010 5 gusting 8 -0.6
2019-Dec-03 18:05 358 2 gusting 8 -0.6
2019-Dec-03 18:00 011 5 gusting 8 -1.1
2019-Dec-03 17:55 308 4 gusting 7 -1.1
2019-Dec-03 17:50 314 5 gusting 8 -1.1
2019-Dec-03 17:45 337 5 gusting 9 -1.1
2019-Dec-03 17:40 349 5 gusting 9 -1.1
2019-Dec-03 17:35 250 3 gusting 6 -1.1
2019-Dec-03 17:30 280 4 gusting 6 -1.1
2019-Dec-03 17:25 304 1 gusting 7 -1.1
2019-Dec-03 17:20 315 3 gusting 7 -1.1
2019-Dec-03 17:15 001 3 gusting 6 -1.1
2019-Dec-03 17:10 355 3 gusting 6 -1.1
2019-Dec-03 17:05 323 2 gusting 8 -1.1
2019-Dec-03 17:00 015 6 gusting 8 -1.1